Ardabil, Iran

6:05 PM IRST on October 22, 2019 (GMT +0330)
Ardabil

Weather History for OITL - August, 2019

Change the Weather History Date:

Monday, August 12, 2019

  Actual Average Record
Temperature  
Mean Temperature 58 °F -  
Max Temperature 71 °F - - ()
Min Temperature 46 °F - - ()
Degree Days  
Heating Degree Days 6    
Growing Degree Days 8 (Base 50)    
Moisture  
Dew Point 49 °F    
Average Humidity 64    
Maximum Humidity 94    
Minimum Humidity 37    
Precipitation  
Precipitation 0.00 in - - ()
Sea Level Pressure  
Sea Level Pressure 30.10 in    
Wind  
Wind Speed 13 mph ()    
Max Wind Speed 31 mph    
Max Gust Speed -    
Visibility 5.9 miles    
Events      
T = Trace of Precipitation, MM = Missing Value Source: Averaged Metar Reports

Daily Weather History Graph

Daily Weather History Graph

Search for Another Location

Airport or City:

Astronomy

Aug. 12, 2019 Rise Set
Actual Time 6:27 AM IRDT 8:14 PM IRDT
Civil Twilight 5:59 AM IRDT 8:42 PM IRDT
Nautical Twilight 5:24 AM IRDT 9:17 PM IRDT
Astronomical Twilight 4:47 AM IRDT 9:54 PM IRDT
Moon 6:23 PM IRDT (8/12) 3:19 AM IRDT (8/12)
Length of Visible Light 14h 43m
Length of Day
13h 46m
Waxing Gibbous, 91% of the Moon is Illuminated
Aug 12
Waxing Gibbous
Aug 15
Full
Aug 23
Last Quarter
Aug 30
New
Sep 6
First Quarter

Hourly Weather History & Observations

Time (IRDT) Temp. Dew Point Humidity Pressure Visibility Wind Dir Wind Speed Gust Speed Precip Events Conditions
12:22 AM 55.4 °F 51.8 °F 88% 30.15 in - NE 13.8 mph - N/A   Clear
1:25 AM 55.4 °F 46.4 °F 72% 30.12 in - ENE 4.6 mph - N/A   Clear
2:20 AM 53.6 °F 44.6 °F 72% 30.12 in - East 6.9 mph - N/A   Clear
3:20 AM 53.6 °F 44.6 °F 72% 30.12 in - Calm Calm - N/A   Clear
4:20 AM 53.6 °F 44.6 °F 72% 30.12 in - Calm Calm - N/A   Clear
5:21 AM 48.2 °F 44.6 °F 87% 30.12 in - Calm Calm - N/A   Clear
6:21 AM 46.4 °F 42.8 °F 87% 30.12 in - Calm Calm - N/A   Clear
7:20 AM 50.0 °F 42.8 °F 76% 30.15 in - Calm Calm - N/A   Clear
7:30 AM 50.0 °F 42.8 °F 76% 30.15 in - Calm Calm - N/A   Clear
8:21 AM 57.2 °F 50.0 °F 77% 30.15 in 6.2 mi NE 4.6 mph - N/A   Partly Cloudy
8:30 AM 57.2 °F 50.0 °F 77% 30.15 in 6.2 mi NE 4.6 mph - N/A   Partly Cloudy
9:22 AM 62.6 °F 48.2 °F 59% 30.12 in 6.2 mi ESE 4.6 mph - N/A   Partly Cloudy
9:30 AM 62.6 °F 48.2 °F 59% 30.12 in 6.2 mi ESE 4.6 mph - N/A   Partly Cloudy
10:22 AM 68.0 °F 41.0 °F 37% 30.12 in 6.2 mi ENE 26.5 mph - N/A   Partly Cloudy
10:30 AM 68.0 °F 41.0 °F 37% 30.12 in 6.2 mi ENE 26.5 mph - N/A   Partly Cloudy
11:00 AM 69.8 °F 42.8 °F 38% 30.12 in - ENE 24.2 mph - N/A   Clear
11:20 AM 69.8 °F 44.6 °F 40% 30.12 in - ENE 26.5 mph - N/A   Clear
11:30 AM 69.8 °F 44.6 °F 40% 30.12 in - ENE 26.5 mph - N/A   Clear
12:00 PM 69.8 °F 42.8 °F 38% 30.09 in - ENE 24.2 mph - N/A   Clear
12:21 PM 69.8 °F 44.6 °F 40% 30.09 in - ENE 24.2 mph - N/A   Clear
12:30 PM 69.8 °F 44.6 °F 40% 30.09 in - ENE 24.2 mph - N/A   Clear
1:21 PM 71.6 °F 46.4 °F 41% 30.09 in - ENE 24.2 mph - N/A   Clear
1:30 PM 71.6 °F 46.4 °F 41% 30.09 in - ENE 24.2 mph - N/A   Clear
2:23 PM 71.6 °F 48.2 °F 43% 30.06 in - ENE 21.9 mph - N/A   Clear
2:30 PM 71.6 °F 48.2 °F 43% 30.06 in - ENE 21.9 mph - N/A   Clear
3:00 PM 69.8 °F 51.8 °F 53% 30.06 in 6.2 mi ENE 24.2 mph - N/A   Partly Cloudy
3:21 PM 69.8 °F 53.6 °F 56% 30.06 in 6.2 mi ENE 26.5 mph - N/A   Partly Cloudy
3:30 PM 69.8 °F 53.6 °F 56% 30.06 in 6.2 mi ENE 26.5 mph - N/A   Partly Cloudy
4:21 PM 68.0 °F 53.6 °F 60% 30.06 in 6.2 mi ENE 31.1 mph - N/A   Partly Cloudy
4:30 PM 68.0 °F 53.6 °F 60% 30.06 in 6.2 mi ENE 31.1 mph - N/A   Partly Cloudy
5:00 PM 66.2 °F 53.6 °F 64% 30.04 in 6.2 mi ENE 28.8 mph - N/A   Partly Cloudy
5:21 PM 66.2 °F 53.6 °F 64% 30.06 in 6.2 mi ENE 28.8 mph - N/A   Partly Cloudy
5:30 PM 66.2 °F 53.6 °F 64% 30.06 in 6.2 mi ENE 28.8 mph - N/A   Partly Cloudy
6:21 PM 64.4 °F 53.6 °F 68% 30.06 in 6.2 mi ENE 26.5 mph - N/A   Partly Cloudy
7:21 PM 60.8 °F 55.4 °F 82% 30.06 in 6.2 mi ENE 24.2 mph - N/A   Mostly Cloudy
7:30 PM 60.8 °F 55.4 °F 82% 30.06 in 6.2 mi ENE 24.2 mph - N/A   Mostly Cloudy
8:23 PM 59.0 °F 57.2 °F 94% 30.06 in 4.3 mi ENE 19.6 mph - N/A   Light Drizzle
8:30 PM 59.0 °F 57.2 °F 94% 30.06 in 4.3 mi ENE 19.6 mph - N/A   Light Drizzle
9:23 PM 60.8 °F 55.4 °F 82% 30.12 in 4.3 mi ENE 19.6 mph - N/A   Overcast
10:22 PM 57.2 °F 53.6 °F 88% 30.12 in 6.2 mi ENE 13.8 mph - N/A   Partly Cloudy
11:23 PM 55.4 °F 51.8 °F 88% 30.12 in 6.2 mi ENE 9.2 mph - N/A   Partly Cloudy